RH
15 12 14 19 16 31 48 55 44 51 60 67 67 61 62 66 70 79 39 30 34 35 32 93 78 95 98 97 98 99 100 100 98 82 94 94 89 71 84 89 89 88 92 88 64 62 63 62 63
14 14 12 12 30 35 52 42 52 53 66 64 62 67 68 66 68 66 37 37 24 31 27 46 66 56 98 96 97 98 100 100 100 97 88 95 89 77 83 90 89 81 83 76 60 61 59 62 67
13 14 11 22 40 47 49 39 47 51 53 51 52 45 44 52 49 47 44 40 34 24 19 20 59 45 72 81 93 96 98 98 100 100 100 100 94 85 87 82 85 84 79 70 69 74 72 68 69
14 12 16 24 34 34 34 28 28 25 32 36 38 39 41 41 42 45 46 46 49 46 25 23 21 60 41 61 62 90 93 94 95 100 100 100 100 98 99 92 88 84 90 79 71 82 82 72 67
10 13 19 23 23 19 19 21 21 22 26 29 31 36 37 38 41 45 41 42 43 46 52 36 18 28 45 47 41 56 87 94 89 88 98 100 100 98 100 100 89 85 93 94 89 86 78 74 59
9 11 18 23 22 18 16 16 16 18 20 20 24 27 32 34 38 38 35 34 37 40 40 31 31 18 19 48 46 24 59 84 94 85 81 93 98 99 89 100 100 96 98 94 89 88 87 79 57
8 11 17 18 21 20 17 15 14 16 17 20 20 23 27 32 32 31 30 27 30 34 36 38 28 14 10 22 26 32 20 48 83 92 86 82 90 97 100 100 100 98 95 99 99 97 91 86 61
7 9 12 12 16 19 14 15 15 15 18 18 21 22 26 29 28 26 24 22 23 27 34 34 38 29 17 26 14 33 33 24 49 88 90 87 87 91 95 100 98 100 96 99 100 99 96 89 76
5 7 10 10 12 15 13 14 16 17 18 20 23 26 26 24 22 20 18 17 19 23 31 32 34 40 32 40 28 23 38 48 28 51 89 88 88 83 85 95 100 97 98 99 100 94 92 83 69
6 10 12 10 11 12 12 13 15 14 15 17 19 21 20 18 18 17 16 15 17 21 27 33 33 45 45 37 39 28 41 52 40 28 62 86 92 95 87 93 99 99 97 100 94 93 89 86 64
9 13 11 11 11 11 11 11 13 12 14 15 16 16 16 16 16 15 16 15 17 20 25 35 35 44 49 39 46 32 48 53 58 62 28 76 95 100 94 95 98 97 97 99 97 91 87 90 64
12 11 11 11 10 9 10 11 13 14 15 16 17 17 16 16 15 14 15 16 18 20 24 33 37 40 50 47 47 38 45 53 49 70 60 32 75 97 100 92 95 100 100 94 100 95 92 94 71
11 10 10 10 10 11 10 11 13 14 14 16 17 18 16 16 16 15 16 18 20 21 22 30 35 38 47 46 47 43 43 46 52 62 69 47 52 83 100 100 98 96 100 98 100 95 96 91 88
10 9 10 10 10 12 11 11 14 15 16 16 17 15 14 15 16 17 16 20 24 21 21 27 33 35 42 45 43 43 41 44 50 57 72 68 37 68 91 99 100 100 100 100 97 94 94 92 91
9 10 9 8 10 9 12 13 12 13 15 14 14 13 12 14 14 15 16 20 22 21 19 25 28 32 40 47 39 40 42 44 47 52 64 75 57 39 73 95 100 100 99 93 100 94 90 94 94
8 8 9 7 7 11 11 10 10 11 11 10 9 10 10 12 13 14 15 16 18 19 20 22 27 34 40 46 40 38 40 42 45 51 61 74 67 43 56 79 97 98 100 100 100 96 100 99 95
7 7 8 9 7 6 8 9 9 10 9 10 10 10 9 10 10 11 12 13 15 18 21 24 27 34 41 46 39 38 40 42 45 47 57 66 72 54 38 68 88 98 100 100 99 93 98 98 99
11 10 8 8 8 8 8 8 7 8 9 9 9 8 8 10 11 12 12 12 14 18 22 24 29 34 42 42 38 39 40 44 45 47 54 65 83 68 43 49 82 92 99 99 100 95 93 100 100
10 10 10 8 9 12 10 9 8 8 8 8 9 10 11 12 12 12 13 15 16 18 23 25 30 38 52 46 42 42 44 50 46 48 54 65 78 76 62 42 74 91 91 98 100 100 98 100 99
11 13 13 9 9 11 10 12 8 7 8 9 9 10 11 11 12 14 15 16 18 20 21 25 33 48 56 55 49 49 52 54 47 48 52 59 70 80 69 50 57 91 91 100 100 100 99 99 100
14 15 14 11 9 9 11 12 10 8 8 9 10 12 13 12 13 15 17 18 20 21 24 27 38 51 71 54 50 53 56 51 54 51 52 67 68 78 79 70 61 90 94 99 100 99 98 100 100
15 13 12 11 13 16 11 20 14 11 11 12 13 14 14 13 14 17 19 20 22 24 26 31 40 52 57 58 57 58 56 69 58 54 60 77 98 92 87 76 89 98 97 100 100 98 100 99 99
14 13 14 13 15 17 14 14 16 17 18 15 14 14 15 14 16 19 21 22 23 24 27 37 50 59 81 54 56 64 60 65 63 65 80 77 94 98 94 82 91 99 97 97 100 96 99 98 100
12 14 15 15 15 24 18 17 26 28 19 16 15 16 17 14 16 22 22 23 26 28 33 37 45 52 52 52 55 75 64 67 71 80 88 77 74 85 87 89 90 98 98 94 92 92 91 96 100
14 20 21 23 23 38 24 22 48 25 16 16 17 18 16 14 17 22 24 28 30 34 37 40 46 48 48 51 67 65 73 74 72 83 87 71 73 79 91 92 93 98 96 97 99 96 89 93 98
18 21 34 44 37 33 26 53 55 19 15 18 20 19 16 14 16 20 25 30 36 38 40 47 50 48 50 57 66 68 70 74 75 83 78 87 89 86 92 94 97 99 100 94 100 99 94 85 94
19 24 18 33 36 39 28 40 28 17 18 20 22 23 19 15 16 20 25 30 39 40 44 52 56 52 54 61 66 65 78 85 85 82 92 84 86 82 91 94 94 99 93 89 98 100 93 87 88
17 16 32 40 56 48 41 37 48 28 25 23 25 24 21 16 16 20 24 29 36 41 47 54 57 57 60 64 70 74 77 81 82 90 91 84 94 96 90 94 99 100 98 98 100 100 90 83 76
19 22 29 30 35 45 53 54 44 28 26 28 25 24 21 18 17 20 25 30 33 38 43 48 55 59 61 65 74 84 83 85 90 84 93 97 93 94 98 94 98 100 100 100 100 99 90 78 79
15 20 22 38 39 39 39 69 27 24 25 27 28 26 23 18 18 20 24 29 34 34 38 42 49 57 60 65 77 85 77 88 81 93 94 94 88 91 98 96 98 99 94 100 100 100 91 77 82
Wind_Speed
5 3 6 14 6 10 14 7 9 10 5 10 14 17 15 11 6 5 11 18 21 27 33 28 29 27 18 17 17 15 12 9 3 3 2 2 1 4 5 6 5 6 8 7 11 12 11 9 8
4 4 13 11 7 9 8 11 15 11 12 12 11 10 9 5 5 0 13 17 22 27 31 30 29 31 21 17 18 17 15 12 7 5 3 3 5 6 8 8 7 7 6 8 10 9 8 6 7
5 13 8 7 10 9 8 9 11 11 12 5 6 8 6 5 5 5 14 18 21 22 25 28 27 30 27 25 20 17 17 14 10 8 7 1 5 9 13 16 12 7 10 13 10 7 6 8 9
6 18 22 16 22 17 13 11 16 17 15 9 12 12 9 7 2 3 5 9 16 21 22 23 26 25 25 24 25 20 16 15 12 10 8 7 3 1 9 12 11 12 15 13 14 10 7 9 9
8 28 14 17 21 19 16 18 14 12 12 14 9 8 10 7 6 7 10 12 17 17 21 23 23 23 18 24 26 26 20 15 14 11 9 6 4 2 8 3 15 12 14 14 14 10 8 9 9
16 19 14 15 19 16 15 14 17 17 13 10 18 14 9 7 7 7 9 11 14 17 23 25 22 24 26 26 19 26 24 19 14 12 10 7 4 3 4 7 8 10 10 17 14 9 15 12 11
14 13 17 18 16 13 12 12 13 13 13 12 7 12 10 9 8 8 8 10 14 17 22 27 26 23 24 24 27 24 25 23 19 13 11 7 5 5 6 9 9 11 10 10 14 11 12 15 14
23 14 19 15 14 15 11 14 14 13 11 8 13 8 8 7 8 8 8 9 14 18 20 25 27 26 23 21 22 24 28 22 19 16 13 10 6 5 8 13 14 12 12 16 14 11 12 19 15
16 11 11 13 13 11 14 14 12 14 15 17 12 12 7 6 7 8 9 9 12 16 19 21 26 25 23 20 21 20 25 32 20 17 12 12 8 7 6 8 17 15 13 13 12 9 17 18 15
20 13 14 16 16 11 14 12 6 6 10 10 10 7 5 5 6 8 10 11 12 14 16 19 25 25 23 21 24 21 19 25 29 21 16 11 10 8 8 5 7 15 8 10 10 14 15 14 20
26 17 17 16 15 15 12 10 2 2 9 6 5 3 4 6 7 9 9 12 12 13 15 17 21 24 26 23 22 22 21 24 21 29 20 11 10 7 7 7 7 10 8 6 11 16 17 18 23
24 21 18 14 10 10 11 9 8 10 7 4 2 3 4 7 8 10 10 11 12 13 14 15 18 23 24 25 25 24 21 22 20 24 29 16 13 7 5 8 8 11 12 12 11 14 18 18 25
18 18 16 14 13 10 6 6 7 6 3 1 1 4 6 7 9 10 10 10 12 13 14 13 17 21 23 23 29 26 21 22 18 19 27 23 16 11 7 6 9 12 14 18 17 16 14 16 19
15 17 13 12 11 4 5 6 3 6 3 3 4 7 8 8 10 12 11 11 12 13 13 13 15 17 21 23 24 26 22 22 17 18 22 27 19 14 10 6 7 13 13 19 22 22 21 22 22
19 14 13 9 3 5 3 9 4 6 4 5 7 9 10 11 12 13 13 12 13 15 13 15 16 17 19 20 24 22 22 22 16 18 18 27 22 17 12 10 7 11 13 16 23 25 25 24 25
12 11 6 7 3 5 4 10 10 7 7 7 9 11 12 13 14 15 16 16 16 14 14 15 16 15 15 18 20 20 22 21 19 17 16 22 22 19 14 12 9 5 11 14 17 26 26 22 23
7 7 6 7 3 0 3 7 12 7 4 8 11 14 15 17 17 19 19 20 19 17 18 19 17 14 14 14 19 18 22 19 18 15 15 20 26 20 17 13 9 9 5 11 18 21 28 29 22
9 9 8 7 5 3 7 8 7 10 5 8 12 14 18 20 20 23 24 23 21 19 20 20 18 13 14 13 15 16 20 21 17 18 15 18 22 22 19 14 10 9 10 4 10 26 24 23 20
9 8 9 7 5 5 2 7 4 4 3 8 13 18 21 20 21 17 24 24 27 17 17 16 12 10 9 17 15 15 17 20 17 16 15 13 17 25 21 16 10 8 10 8 4 10 25 23 17
8 11 9 2 2 2 9 9 3 6 9 8 11 14 20 21 20 20 20 21 21 21 20 15 12 12 10 7 12 13 18 17 18 16 12 13 15 21 21 19 12 7 7 11 3 3 11 27 22
10 9 7 6 12 8 12 6 5 8 5 4 8 15 18 20 20 20 20 20 18 18 18 15 6 7 10 13 10 12 13 16 18 14 12 16 12 17 19 20 15 7 6 11 6 2 11 12 18
2 10 7 7 9 6 3 6 9 2 7 15 15 16 18 19 17 19 18 19 17 16 18 11 10 10 12 10 9 10 13 15 16 15 16 14 11 9 15 18 14 10 6 8 9 4 5 10 12
5 7 7 6 8 9 2 5 6 10 12 14 17 16 17 16 18 16 18 16 15 13 11 14 10 6 12 14 9 10 13 16 15 16 15 16 15 14 14 16 12 11 7 6 6 9 7 8 13
11 13 16 8 6 6 4 4 3 8 12 13 15 17 16 16 14 15 15 14 13 12 12 12 13 12 11 10 11 12 13 15 15 17 13 14 17 14 14 12 12 12 8 6 6 7 9 10 14
13 16 3 5 5 2 2 2 2 8 9 8 12 16 17 15 13 14 13 12 11 11 10 9 11 11 10 11 10 11 12 13 14 14 15 17 13 11 11 13 17 13 8 5 3 4 8 12 10
8 7 3 4 6 8 4 4 1 1 7 12 13 14 15 14 13 12 11 10 11 11 9 9 10 9 9 9 10 12 13 12 13 13 15 13 11 10 9 10 13 14 9 5 4 1 4 10 11
6 4 4 4 8 5 3 4 2 3 10 12 15 14 13 13 12 11 11 8 8 9 8 8 8 9 9 10 10 11 9 10 10 12 12 14 10 8 11 10 11 11 8 4 3 1 2 6 16
2 3 2 2 5 5 4 6 3 8 10 10 14 14 13 12 12 11 10 8 8 7 7 8 8 8 9 10 9 9 9 10 11 12 11 10 8 9 10 11 11 11 5 2 1 1 2 5 14
3 3 2 2 3 3 5 2 2 3 6 9 15 13 11 11 11 10 9 8 8 7 7 7 7 7 8 8 7 8 8 7 9 12 11 10 10 7 11 11 9 8 6 4 2 3 3 4 10
2 5 3 2 2 5 3 5 3 2 4 13 13 13 11 9 9 9 9 8 7 7 7 7 8 6 8 6 6 7 9 9 10 9 13 11 9 10 11 11 11 9 5 4 6 5 4 3 5
Wind_Direction
49 61 307 270 221 75 51 64 49 41 66 62 57 71 88 72 39 84 340 358 3 11 5 8 16 7 18 20 12 357 352 341 337 232 225 157 247 199 213 215 202 199 182 157 175 161 161 158 158
69 297 260 286 24 97 68 66 55 61 115 118 77 76 53 75 57 14 7 17 14 14 13 10 11 4 11 9 11 5 357 349 348 325 244 176 162 206 229 211 176 200 181 169 169 174 181 181 161
354 345 281 94 69 70 99 79 89 122 151 141 108 74 77 53 58 19 353 7 16 20 18 8 7 11 4 1 355 359 1 358 359 358 353 312 195 218 231 226 224 198 172 160 169 182 190 187 164
290 83 60 80 84 95 126 159 131 101 97 94 136 87 83 44 78 33 30 21 7 4 13 17 9 6 359 352 360 352 348 357 356 4 12 7 252 239 240 234 206 230 232 197 185 179 205 186 170
113 78 89 94 90 86 73 78 87 91 67 60 41 75 84 56 46 33 20 21 11 10 10 13 20 13 349 358 1 351 337 344 349 352 357 8 0 265 252 235 203 231 213 221 203 201 185 195 184
116 127 107 100 96 81 69 84 94 83 66 79 95 93 84 64 52 36 32 15 14 11 4 360 8 15 11 359 352 351 341 337 335 336 343 347 335 298 200 128 190 199 230 218 193 202 198 201 193
109 91 109 114 103 90 76 53 65 65 71 39 44 88 100 54 41 31 23 13 9 13 13 2 358 4 8 9 359 340 342 341 328 324 323 330 323 286 233 213 192 200 210 191 206 232 194 199 188
92 115 126 130 108 107 101 77 59 76 61 49 11 43 67 41 28 20 15 9 4 5 14 7 1 3 14 8 352 351 345 345 330 321 313 309 315 295 267 215 200 205 217 218 233 263 224 193 206
110 92 84 110 119 121 124 88 76 79 73 61 62 67 63 32 11 3 359 355 357 360 2 8 358 2 6 14 355 354 352 340 340 327 315 306 303 283 268 265 231 217 239 234 236 208 183 185 197
87 86 77 82 108 112 85 90 109 94 91 88 82 71 47 9 358 355 353 355 358 359 358 8 356 3 4 8 354 355 359 338 340 340 327 320 315 296 267 252 249 228 234 204 203 191 195 206 194
84 98 94 79 95 99 107 83 52 47 93 57 57 34 3 347 349 347 350 351 352 354 350 3 360 359 5 13 349 356 358 344 350 334 336 319 315 310 264 231 214 204 197 187 194 190 202 205 192
91 90 94 92 89 85 87 89 74 63 85 87 71 337 328 335 340 340 343 339 346 345 343 356 4 352 2 9 350 354 359 340 350 342 326 336 315 322 288 240 214 199 200 188 201 217 217 212 205
91 96 94 91 83 90 112 68 122 115 120 147 315 291 313 318 325 327 325 327 333 332 333 343 359 350 354 8 350 354 352 334 348 338 320 326 326 319 332 249 222 211 203 190 189 195 205 215 211
119 110 108 107 97 98 132 120 251 136 177 239 270 295 301 307 312 310 313 321 320 318 322 328 352 338 342 352 347 346 338 329 339 337 326 322 329 321 322 316 234 216 212 211 196 192 195 220 222
132 130 133 111 97 109 338 186 185 129 197 266 281 288 303 304 303 305 305 302 305 309 307 323 329 325 332 347 346 343 332 327 337 328 326 318 328 328 324 317 309 224 215 218 218 204 203 213 222
173 186 162 118 189 133 211 97 125 174 221 280 313 312 305 299 301 299 297 296 296 299 308 314 319 313 317 339 345 339 328 328 328 322 326 314 321 328 321 311 318 273 223 219 226 225 209 226 212
194 49 39 132 88 253 222 339 145 177 236 288 309 319 314 310 310 311 310 301 290 288 295 297 294 302 306 334 333 334 325 323 320 322 322 311 318 331 326 310 303 326 264 214 220 222 227 225 206
18 6 15 66 92 333 285 280 144 174 207 286 295 314 332 329 326 324 315 310 306 285 284 286 288 292 315 325 326 326 317 325 318 321 316 327 317 327 332 325 305 311 318 254 224 227 234 223 185
14 348 22 52 65 324 310 299 294 107 293 308 319 327 318 318 322 327 327 322 331 304 295 286 268 293 313 322 329 328 320 320 320 316 315 329 318 324 338 325 307 313 320 326 258 226 218 212 216
29 11 3 146 161 270 313 306 284 61 10 319 306 312 339 334 332 336 333 332 322 327 313 313 281 281 290 306 324 330 318 319 314 320 316 325 332 320 333 337 331 317 299 334 320 237 230 220 211
73 12 329 317 314 255 306 233 194 128 289 244 351 350 339 337 339 339 338 334 333 329 335 337 305 337 331 320 350 330 318 314 324 327 333 329 336 310 327 336 333 311 313 339 359 248 240 223 214
30 5 309 303 327 353 31 329 108 66 320 0 8 359 341 338 339 338 341 338 335 331 332 327 319 324 318 312 337 321 322 318 320 326 319 325 6 333 324 329 331 325 313 331 22 356 259 243 188
3 317 301 317 306 296 144 325 117 43 351 355 351 337 337 343 340 346 344 337 333 344 348 350 353 301 331 352 336 324 319 323 324 323 329 324 326 3 327 332 337 337 311 312 354 16 8 254 228
289 272 236 230 252 244 7 23 303 14 356 335 338 328 340 340 342 348 341 337 339 340 338 335 337 351 334 331 324 326 321 323 321 319 335 316 313 322 332 339 336 330 321 308 310 332 349 334 249
343 342 49 223 209 11 341 322 62 6 340 327 332 344 345 346 348 339 340 339 337 342 340 338 341 340 333 326 327 331 324 323 324 328 332 333 319 318 333 347 342 334 330 321 302 324 308 322 290
321 345 32 301 342 313 184 234 335 184 285 2 345 350 344 344 344 341 342 334 334 336 340 337 340 342 341 338 339 332 330 329 327 328 322 333 321 343 351 340 335 336 322 308 314 2 339 338 330
348 33 345 277 255 266 232 137 151 202 8 357 352 351 346 341 341 346 341 333 333 330 334 336 341 340 341 340 341 337 332 336 334 317 331 334 336 352 342 341 341 337 317 323 312 281 298 294 319
339 335 229 228 316 317 328 305 33 4 348 351 343 350 343 342 339 340 341 337 331 321 322 327 336 338 339 341 337 338 347 334 326 337 341 0 357 346 356 343 342 336 356 8 311 125 25 333 334
185 206 201 234 263 306 314 309 250 315 347 336 345 345 344 338 332 336 338 337 329 320 321 323 324 335 334 345 353 355 335 347 347 346 359 346 354 3 7 358 350 5 34 57 55 119 126 42 339
308 303 271 286 58 282 267 272 255 199 304 360 343 339 337 331 329 330 328 323 317 319 316 318 323 328 337 348 349 354 350 16 352 356 342 11 356 23 5 12 15 7 31 79 77 108 112 87 332